Rechercher aéroport 
image banner adimage banner adimage banner ad
image banner ad

4CL7 - Inyo County Sheriff Search&Rescue

Situé à Bishop, United States

ICAO - 4CL7, IATA -

Données fournies par Airmate  

Information générale

Coordonnées: N37°21'56" W118°22'3"
Élévation : 4120 feet MSL.
Variation magnétique : 15° East
Voir autres Aéroports à California

Données opérationnelles

Special qualification required
Heure actuelle UTC:
Heure actuelle locale:
Météo à : KBIH - Bishop ( 1 km )
METAR: KBIH 231456Z AUTO 00000KT 10SM CLR 17/01 A3016 RMK AO2 SLP173 T01670006 53016
TAF: KBIH 231120Z 2312/2412 33006KT 3SM FU VV040 FM231500 34010KT P6SM SCT250 FM240300 24006KT P6SM FEW250 FM240600 02007KT P6SM FEW250
Voir NOTAMs / SUP AIP / TFR affectant cet aéroport [VIEW]
Fréquences de communication: [VIEW]

Pistes:

Coordonnées de l'aéroport

Adresse: Bishop United States

Vue satellite de 4CL7